Weather History for Roseburg, OR

Change the Weather History Date:

Saturday, February 2, 2013

  Actual Average Record
Temperature  
Mean Temperature 44 °F 44 °F  
Max Temperature 51 °F 52 °F 67 °F (1935)
Min Temperature 37 °F 37 °F 19 °F (1956)
Degree Days  
Heating Degree Days 21 21  
Month to date heating degree days 38 42  
Since 1 July heating degree days 2200 2361  
Cooling Degree Days 0 0  
Month to date cooling degree days 0 0  
Year to date cooling degree days 0 0  
Moisture  
Dew Point 40 °F    
Average Humidity 86    
Maximum Humidity 100    
Minimum Humidity 71    
Precipitation  
Precipitation 0.00 in 0.17 in 1.57 in (1987)
Month to date precipitation 0.00 0.34  
Year to date precipitation 2.41 5.43  
Sea Level Pressure  
Sea Level Pressure 30.30 in    
Wind  
Wind Speed 1 mph (SSE)    
Max Wind Speed 5 mph    
Max Gust Speed 6 mph    
Visibility 6 miles    
Events Fog    
T = Trace of Precipitation, MM = Missing Value Source: NWS Daily Summary

Daily Weather History Graph

Daily Weather History Graph

Search for Another Location

Airport:

Trip Planner

Search our weather history database for the weather conditions in past years. The results will help you decide how hot, cold, wet, or windy it might be!

Date:

Astronomy

Feb. 02, 2013 Rise Set
Actual Time 7:27 AM PST 5:27 PM PST
Civil Twilight 6:57 AM PST 5:57 PM PST
Nautical Twilight 6:23 AM PST 6:31 PM PST
Astronomical Twilight 5:50 AM PST 7:04 PM PST
Moon No Moon Rise 10:28 AM PST (2/2)
Length of Visible Light 11h 00m
Length of Day
9h 59m
Waning Gibbous, 58% of the Moon is Illuminated
Feb 2
Waning Gibbous
Feb 3
Last Quarter
Feb 9
New
Feb 17
First Quarter
Feb 25
Full

Hourly Weather History & Observations

Time (PST) Temp. Windchill Dew Point Humidity Pressure Visibility Wind Dir Wind Speed Gust Speed Precip Events Conditions
12:09 AM 42.8 °F - 42.8 °F 100% 30.28 in 1.5 mi Calm Calm - N/A   Overcast
12:33 AM 42.8 °F - 41.0 °F 93% 30.28 in 2.0 mi Calm Calm - N/A   Overcast
12:44 AM 42.8 °F - 42.8 °F 100% 30.28 in 1.2 mi Calm Calm - N/A   Overcast
1:53 AM 42.1 °F - 42.1 °F 100% 30.30 in 1.0 mi Calm Calm - N/A   Mist
2:16 AM 41.0 °F - 41.0 °F 100% 30.29 in 2.0 mi Calm Calm - N/A   Overcast
2:31 AM 41.0 °F - 41.0 °F 100% 30.29 in 3.0 mi Calm Calm - N/A   Overcast
2:53 AM 41.0 °F 39.0 °F 41.0 °F 100% 30.30 in 4.0 mi South 3.5 mph - N/A   Overcast
4:53 AM 39.9 °F 37.8 °F 39.0 °F 97% 30.29 in 5.0 mi ESE 3.5 mph - N/A   Overcast
5:12 AM 39.2 °F - 39.2 °F 100% 30.28 in 2.5 mi Calm Calm - N/A   Overcast
5:25 AM 39.2 °F - 39.2 °F 100% 30.28 in 1.8 mi Calm Calm - N/A   Overcast
5:33 AM 39.2 °F - 39.2 °F 100% 30.28 in 2.5 mi Calm Calm - N/A   Overcast
5:53 AM 39.9 °F - 39.9 °F 100% 30.29 in 2.5 mi Calm Calm - N/A   Overcast
6:08 AM 39.2 °F - 39.2 °F 100% 30.27 in 3.0 mi Calm Calm - N/A   Overcast
6:53 AM 39.9 °F - 39.9 °F 100% 30.29 in 10.0 mi Calm Calm - N/A   Overcast
7:16 AM 41.0 °F 39.0 °F 39.2 °F 93% 30.28 in 10.0 mi South 3.5 mph - N/A   Overcast
7:53 AM 41.0 °F 39.0 °F 39.0 °F 93% 30.30 in 10.0 mi South 3.5 mph - N/A   Overcast
8:53 AM 41.0 °F - 39.0 °F 93% 30.32 in 10.0 mi Calm Calm - N/A   Overcast
9:08 AM 41.0 °F - 39.2 °F 93% 30.31 in 10.0 mi Calm Calm - N/A   Overcast
9:53 AM 41.0 °F - 39.0 °F 93% 30.33 in 10.0 mi Calm Calm - N/A   Overcast
10:37 AM 42.8 °F - 39.2 °F 87% 30.33 in 10.0 mi Calm Calm - N/A   Overcast
10:53 AM 42.1 °F - 39.0 °F 89% 30.35 in 10.0 mi Calm Calm - N/A   Overcast
11:53 AM 44.1 °F - 39.9 °F 85% 30.33 in 10.0 mi Calm Calm - N/A   Overcast
12:44 PM 44.6 °F - 39.2 °F 81% 30.31 in 10.0 mi Calm Calm - N/A   Scattered Clouds
12:53 PM 46.0 °F - 41.0 °F 83% 30.31 in 10.0 mi Calm Calm - N/A   Partly Cloudy
1:53 PM 48.0 °F - 42.1 °F 80% 30.30 in 10.0 mi Calm Calm - N/A   Clear
2:53 PM 48.9 °F - 42.1 °F 77% 30.28 in 10.0 mi Calm Calm - N/A   Clear
3:53 PM 50.0 °F - 42.1 °F 74% 30.28 in 10.0 mi Calm Calm - N/A   Clear
4:53 PM 51.1 °F - 42.1 °F 71% 30.26 in 10.0 mi Calm Calm - N/A   Clear
5:53 PM 46.9 °F - 42.1 °F 83% 30.27 in 10.0 mi Calm Calm - N/A   Clear
6:53 PM 44.1 °F - 39.9 °F 85% 30.29 in 10.0 mi Calm Calm - N/A   Clear
7:53 PM 42.1 °F - 39.0 °F 89% 30.30 in 10.0 mi Calm Calm - N/A   Clear
8:53 PM 39.9 °F - 37.9 °F 93% 30.30 in 9.0 mi Calm Calm - N/A   Clear
9:53 PM 37.9 °F - 37.0 °F 97% 30.31 in 9.0 mi Calm Calm - N/A   Clear
10:44 PM 37.4 °F - 35.6 °F 93% 30.28 in 8.0 mi Calm Calm - N/A   Scattered Clouds
10:53 PM 37.9 °F - 37.0 °F 97% 30.30 in 1.2 mi Calm Calm - N/A   Mostly Cloudy
10:55 PM 37.4 °F - 37.4 °F 100% 30.29 in 0.8 mi Calm Calm - N/A   Mist
11:04 PM 37.4 °F - 37.4 °F 100% 30.30 in 2.0 mi Calm Calm - N/A   Overcast
11:19 PM 37.4 °F - 37.4 °F 100% 30.30 in 0.5 mi Calm Calm - N/A Fog Fog
11:26 PM 37.4 °F - 37.4 °F 100% 30.30 in 0.2 mi Calm Calm - N/A Fog Fog
11:49 PM 37.4 °F 34.9 °F 37.4 °F 100% 30.31 in 0.5 mi SSE 3.5 mph - N/A Fog Fog
11:53 PM 37.0 °F - 37.0 °F 100% 30.32 in 0.5 mi Calm Calm - N/A Fog Fog